User: anonymous   Login
Location: Unspecified
(0.0000°N, 0.0000°E)
Time: 11:33:29
(UTC+00:00)
Language:

CHUBUSAT 1 - Orbit

View from above orbital plane
View from above orbital plane
View from above satellite
View from above satellite

Ground track
Ground track

The orbit data is extracted from the following two-line orbital elements,

1 40300U 14070C   17265.19625616  .00001316  00000-0  61989-4 0  9994
2 40300  97.3910 343.2985 0022014 119.1497 325.0720 15.21058040159531
Epoch (UTC): 22 September 2017 04:42:36
Eccentricity: 0.0022014
inclination: 97.3910°
perigee height: 487 km
apogee height: 518 km
right ascension of ascending node: 343.2985°
argument of perigee: 119.1497°
revolutions per day: 15.21058040
mean anomaly at epoch: 325.0720°
orbit number at epoch: 15953

The dashed part of the orbit path shows where the satellite is in the earth's shadow,  

DLR